Skip Page Navigation
NASA JPL Caltech
NASA Logo - Jet Propulsion Laboratory + View the NASA Portal
+ Center for Near-Earth Object Studies
JPL Home Earth Solar System Stars & Galaxies Technology
JPL Solar System Dynamics
BODIES ORBITS EPHEMERIDES TOOLS PHYSICAL DATA DISCOVERY FAQ SITE MAP
JPL Small-Body Database Browser
Search: [ help ]  
193407 (2000 WT37)
Classification: Main-belt Asteroid          SPK-ID: 2193407
Ephemeris | Orbit Diagram | Orbital Elements | Mission Design | Physical Parameters | Discovery Circumstances | Close-Approach Data ]

[ show orbit diagram ]
Orbital Elements at Epoch 2459000.5 (2020-May-31.0) TDB
Reference: JPL 19 (heliocentric ecliptic J2000)
 Element Value Uncertainty (1-sigma)   Units 
e .1819650012726382 5.674e-08  
a 2.690428387093877 1.664e-08 au
q 2.200864582212398 1.5676e-07 au
i 6.201285879674555 6.5919e-06 deg
node 178.791939468735 3.404e-05 deg
peri 150.5250275988857 3.5915e-05 deg
M 225.7076598183261 1.2751e-05 deg
tp 2459601.783550628240
(2022-Jan-22.28355063)
5.9249e-05 TDB
period 1611.872113728386
4.41
1.4954e-05
4.094e-08
d
yr
n .2233427806920065 2.0721e-09 deg/d
Q 3.179992191975356 1.9668e-08 au
  Orbit Determination Parameters
   # obs. used (total)      577  
   data-arc span      7097 days (19.43 yr)  
   first obs. used      2000-11-20  
   last obs. used      2020-04-26  
   planetary ephem.      DE431  
   SB-pert. ephem.      SB431-N16  
   condition code      0  
   norm. resid. RMS      .56661  
   source      ORB  
   producer      Otto Matic  
   solution date      2020-May-21 05:32:42  

Additional Information
 Earth MOID = 1.19265 au 
 Jupiter MOID = 2.20314 au 
 T_jup = 3.340 
[ show covariance matrix ]

Ephemeris | Orbit Diagram | Orbital Elements | Mission Design | Physical Parameters | Discovery Circumstances | Close-Approach Data ]

Physical Parameter Table
Parameter Symbol Value Units Sigma Reference Notes
absolute magnitude H 15.7   n/a MPO427169  

193407 (2000 WT37)          Discovered 2000-Nov-20 by LINEAR at Socorro
Reference: 20081113/Numbers.arcLast Updated: 2008-11-17

[ show close-approach data ]
Alternate Designations
 2000 WT37 = 2003 KT32 
Ephemeris | Orbit Diagram | Orbital Elements | Mission Design | Physical Parameters | Discovery Circumstances | Close-Approach Data ]
ABOUT SSD CREDITS/AWARDS PRIVACY/COPYRIGHT GLOSSARY LINKS
FirstGov 2020-Jul-05 08:29 UT
(server date/time)  
NASA Home Page
Site Manager:   Ryan S. Park
Webmaster  Alan B. Chamberlin